GFSSGP_con_lsi_000.txt.gz
Lid_Strength_Index
-1 -0 -1 1 7 7 9 9 7 8 8 7 6 6 6 6 7 8 5 5 4 1 0 -1 -2 -2 -2 -2 -1 -1 -1 -1 -2 -2 -2 -2 -2 -2 -2 -1 -1 -1 -1 -1 -1 -1 -1 -2 -2
0 1 1 3 8 10 9 8 8 7 7 7 7 7 7 7 6 6 5 6 5 3 1 -1 -2 -2 -2 -2 -1 -1 -1 -1 -1 -2 -2 -2 -2 -2 -2 -2 -1 -1 -1 -1 -1 -1 -1 -2 -2
2 2 4 5 7 9 9 8 7 7 7 7 7 7 7 7 6 5 6 7 5 3 2 1 -0 -0 -1 -1 -1 -1 -0 -1 -1 -2 -2 -1 -1 -1 -2 -2 -1 -2 -1 -1 -1 -1 -1 -1 -1
2 3 5 7 9 8 8 7 7 8 8 8 7 8 8 6 6 6 7 8 7 5 3 2 1 1 1 1 0 -0 0 0 -0 -1 -1 -2 -1 0 0 0 0 0 -1 -1 -2 -2 -1 -1 -1
3 4 7 8 9 8 8 7 7 7 7 7 7 7 8 7 6 7 8 8 8 7 5 4 3 2 2 2 2 2 2 2 2 2 1 1 2 2 1 1 0 -0 0 0 -0 -1 -1 -1 -1
5 5 8 9 9 9 8 7 7 7 7 8 8 8 7 7 8 8 8 8 8 8 7 6 5 4 4 4 4 4 3 3 4 4 3 3 4 4 3 3 2 2 1 1 -0 -0 0 0 -1
6 6 8 9 10 10 8 7 8 7 8 8 7 8 8 8 7 8 8 8 8 9 8 8 8 7 6 6 6 5 5 5 5 5 5 5 5 5 5 5 4 3 3 3 1 2 1 2 2
5 6 9 9 10 10 8 8 9 8 8 8 7 8 8 8 8 8 9 9 9 9 9 9 8 8 8 7 7 7 6 6 6 6 6 7 7 7 7 6 5 4 4 4 3 3 3 3 3
6 8 9 9 10 9 9 9 9 9 9 9 8 8 9 8 9 9 10 10 10 10 10 9 9 9 8 9 9 8 8 8 8 8 8 7 7 7 7 8 7 6 6 5 4 4 4 4 4
7 8 9 8 8 8 8 8 8 9 9 9 9 9 10 9 10 10 10 11 10 10 10 10 9 9 9 10 9 8 9 8 8 8 8 8 8 8 8 8 8 7 8 7 6 5 6 5 5
8 8 8 8 8 8 8 9 8 8 8 7 7 7 9 9 10 10 10 10 10 10 11 10 10 9 9 9 9 8 8 8 8 9 8 8 8 8 8 8 8 8 8 8 7 7 7 6 6
8 8 8 8 8 8 9 8 9 8 7 7 7 7 9 9 10 10 10 10 11 11 11 11 10 10 9 9 9 9 9 9 9 9 9 9 9 9 10 9 9 9 8 9 8 8 7 7 6
8 8 8 7 8 8 9 8 8 8 7 7 9 9 9 9 9 9 9 10 11 12 11 11 10 10 10 10 10 9 10 10 10 10 10 10 10 10 10 10 10 9 9 10 9 9 8 7 7
8 8 8 8 8 8 9 8 10 7 9 8 9 9 9 9 9 9 10 11 11 11 11 11 11 10 11 10 10 10 10 10 10 10 10 11 11 11 11 11 11 10 10 10 10 10 9 8 7
9 9 8 9 9 9 9 10 9 7 10 9 9 9 9 9 9 10 10 11 11 11 11 11 11 11 11 11 11 10 11 11 11 11 11 12 12 12 12 12 11 11 11 11 10 10 10 9 9
10 10 10 9 9 9 9 11 7 7 9 9 8 9 10 10 9 9 10 10 11 11 12 11 12 11 11 11 11 11 11 11 11 11 11 12 13 12 13 12 12 12 12 11 11 11 11 10 10
9 11 11 10 9 10 10 10 8 8 10 9 8 8 9 10 10 10 10 11 11 11 12 12 12 12 12 12 12 12 12 11 11 12 12 12 13 13 13 13 12 12 12 12 12 11 11 11 10
10 11 11 11 10 11 11 11 9 8 9 9 8 7 9 10 10 10 11 11 12 11 11 12 12 12 12 12 12 12 12 12 12 12 12 13 13 14 14 13 13 12 13 12 12 12 11 11 10
10 11 11 9 11 11 11 11 10 9 9 9 8 8 9 10 9 10 11 12 12 12 12 12 12 12 12 13 13 13 13 13 13 13 13 14 14 14 14 14 13 13 13 13 13 12 12 11 11
10 11 10 10 12 12 12 13 11 10 9 9 8 7 8 10 10 11 12 13 13 13 13 13 13 13 13 13 14 13 14 13 13 13 14 14 14 14 15 14 14 14 14 13 13 13 13 12 11
11 11 10 12 12 12 14 13 13 11 11 10 9 9 9 10 11 12 13 13 13 13 13 13 13 13 13 14 14 15 15 15 15 14 14 14 15 14 15 15 14 14 14 14 13 13 13 14 12
12 10 11 12 13 14 13 16 12 12 12 11 9 10 10 11 11 12 13 14 14 13 12 13 13 14 14 14 15 15 15 15 15 15 15 15 14 15 15 15 14 14 14 14 14 14 14 13 14
11 12 12 13 13 15 13 16 14 15 14 12 10 9 10 10 11 12 13 13 14 13 13 13 14 14 15 14 14 15 15 15 15 16 16 16 15 15 15 15 15 15 14 14 14 14 14 13 14
13 13 14 15 15 17 14 15 15 14 13 12 10 10 10 10 10 11 12 13 14 13 13 13 14 15 15 15 15 15 16 16 17 17 17 16 16 16 15 16 16 15 15 15 15 14 14 14 14
12 12 14 15 17 17 16 18 15 12 11 11 9 8 10 10 11 12 13 14 15 14 14 14 14 15 15 15 15 16 16 17 17 17 17 17 17 17 16 16 16 16 16 15 15 15 15 15 14
13 12 14 19 17 16 18 19 14 12 10 10 11 11 12 11 11 12 13 14 14 15 14 14 14 15 16 16 16 17 17 18 18 18 18 18 18 17 17 17 17 17 17 16 16 15 15 15 15
15 15 12 14 20 18 15 13 12 12 12 12 12 11 11 11 12 12 13 13 15 15 14 14 15 15 16 17 17 18 18 19 19 19 19 19 18 18 18 18 18 18 17 17 16 16 16 16 15
15 13 16 14 18 18 16 15 15 13 13 12 12 12 10 11 11 12 13 14 14 14 14 14 14 16 17 17 18 19 19 19 19 19 19 19 19 19 19 19 19 19 18 18 17 17 17 16 15
16 15 15 14 15 16 18 17 14 13 11 12 11 10 10 10 11 11 13 14 14 14 14 14 15 16 18 18 19 20 20 20 20 20 20 20 20 20 20 20 20 20 20 19 18 18 18 18 17
14 14 14 16 17 16 15 16 12 11 11 11 10 11 10 10 9 11 13 14 15 15 15 15 15 17 18 19 20 20 20 20 21 20 20 21 21 21 21 21 21 21 21 20 20 20 20 20 19

GFSSGP_con_lsi_003.txt.gz
Lid_Strength_Index
-1 -1 -1 2 7 7 9 8 6 7 7 5 4 5 6 5 6 8 3 3 1 0 -1 -1 -2 -2 -1 -1 -1 -1 -1 -1 -1 -1 -1 -1 -1 -1 -1 -1 -1 -1 -1 -1 -1 -1 -1 -1 -1
-0 0 1 4 8 10 9 7 8 6 5 5 5 6 6 6 4 5 4 4 2 1 -0 -1 -2 -1 -2 -2 -2 -1 -1 -1 -1 -1 -2 -2 -2 -2 -2 -2 -1 -1 -1 -1 -1 -1 -1 -1 -1
0 0 4 6 8 9 9 7 6 6 5 6 6 5 5 5 5 3 4 4 2 1 0 0 -1 -0 -0 -1 -1 -1 -1 -2 -1 -2 -2 -2 -1 -1 -2 -1 -1 -1 -2 -2 -2 -2 -1 -1 -1
1 2 4 7 8 7 7 6 6 6 6 6 6 7 6 4 4 3 5 5 3 2 2 1 1 0 1 1 1 1 1 0 0 -1 -0 0 0 -0 -1 -1 -1 -1 -0 -0 -1 -1 -1 -1 -1
2 3 7 8 8 7 7 6 6 7 6 6 6 7 6 6 5 5 6 6 5 3 3 3 2 2 2 2 2 2 2 2 2 2 2 2 2 2 2 1 1 1 1 0 -1 -1 -0 0 -0
5 5 8 9 8 7 7 6 6 6 6 7 7 7 6 5 6 6 6 6 6 6 5 4 4 4 3 3 4 3 3 3 4 4 4 4 4 4 3 3 3 2 2 2 1 1 1 1 0
5 6 8 8 8 8 7 6 7 6 6 7 6 8 6 7 5 6 6 7 7 6 7 6 6 5 5 5 5 5 5 5 5 5 5 5 5 5 5 5 4 3 3 3 3 2 2 2 2
5 6 8 8 9 8 7 7 6 6 7 6 6 7 7 6 6 7 7 7 7 7 7 7 7 7 6 6 6 6 6 6 6 6 7 7 6 7 7 6 6 4 4 4 4 4 3 3 3
4 7 8 8 8 7 7 8 7 7 6 7 6 6 7 6 7 8 8 8 8 8 8 8 7 7 7 7 8 7 7 8 8 7 8 6 7 7 7 7 7 6 6 5 5 4 4 5 3
6 7 7 6 6 7 7 7 6 8 7 7 7 6 7 7 8 8 9 9 9 9 9 8 8 8 8 9 8 8 8 8 7 7 7 7 7 8 8 7 7 7 7 6 6 5 5 5 6
5 7 6 6 6 6 7 7 6 7 8 6 6 6 7 7 8 8 8 8 8 8 9 9 8 8 8 9 8 8 8 8 8 8 8 8 8 8 8 8 8 7 7 8 8 7 7 7 7
7 6 6 6 7 7 7 6 7 7 6 6 5 5 6 8 8 8 8 7 8 8 9 9 9 9 8 8 8 8 8 8 8 8 9 8 9 9 9 9 9 8 8 8 8 8 7 7 7
7 6 6 6 7 7 7 8 7 6 5 5 5 7 6 7 7 7 7 6 7 8 9 9 9 9 9 9 9 9 9 9 9 9 10 9 10 10 10 10 9 9 10 10 9 9 8 8 7
6 7 7 6 7 7 8 7 8 6 5 5 5 7 7 6 7 7 7 7 7 8 9 9 9 9 9 9 9 9 9 10 10 10 10 11 10 11 11 10 10 10 10 10 10 10 10 9 8
7 8 7 6 7 8 8 9 8 6 6 7 6 6 6 6 6 7 6 7 7 8 9 9 9 9 10 9 9 9 10 10 10 10 11 11 11 11 12 11 11 11 11 11 11 10 10 10 9
8 8 10 7 7 7 8 11 7 6 6 8 7 6 7 7 7 6 6 7 7 8 9 9 10 10 10 10 10 10 10 11 11 11 11 12 12 12 12 12 12 11 12 12 11 11 11 11 10
8 10 9 8 7 8 9 10 7 6 7 7 7 6 6 7 7 7 6 7 7 9 9 10 10 10 10 10 11 11 11 11 11 12 12 12 12 13 13 13 12 12 12 12 12 12 12 11 11
10 10 9 9 8 9 9 10 8 7 7 7 7 7 6 6 6 7 7 6 7 9 9 10 10 10 10 10 11 11 11 12 12 12 12 13 13 13 13 13 13 13 13 12 12 12 12 12 11
8 9 10 9 7 9 10 10 9 7 7 7 7 7 7 6 5 7 7 7 8 9 10 10 11 11 11 11 12 12 13 12 13 12 13 13 13 13 13 13 13 13 13 13 13 13 13 12 11
9 10 10 8 8 11 10 11 9 8 8 8 8 7 7 7 7 8 8 8 9 10 11 11 11 11 11 11 11 12 12 12 12 13 13 13 13 14 14 14 14 14 14 13 13 13 13 12 12
10 11 10 10 8 10 11 12 10 9 8 8 8 8 8 8 8 9 9 10 10 11 11 11 11 11 12 12 12 13 14 14 14 14 13 13 13 14 14 14 14 14 14 14 13 13 13 14 13
11 8 9 10 11 13 11 15 11 10 10 10 10 8 8 8 8 9 10 11 11 11 11 11 11 12 12 12 13 14 14 15 14 13 13 14 14 14 14 14 14 15 14 14 13 13 14 14 15
10 10 10 10 11 12 12 14 13 12 12 11 10 8 7 7 9 9 10 11 11 11 11 11 11 12 12 13 13 13 14 13 13 14 15 14 14 14 15 15 15 15 15 14 14 14 15 14 15
11 11 12 12 12 16 13 13 14 12 12 10 9 8 7 8 9 9 9 10 11 11 11 12 12 13 13 13 13 13 14 14 15 15 15 15 15 15 15 15 15 15 15 15 15 15 15 15 15
11 11 13 15 16 16 11 14 12 10 10 10 9 8 7 8 9 9 10 11 11 11 12 12 13 13 13 14 14 14 14 14 15 15 15 16 16 16 16 16 16 16 16 16 16 16 16 15 15
12 10 13 19 16 15 14 16 13 9 9 9 9 8 8 8 8 9 9 11 11 11 12 12 13 14 14 14 14 14 14 15 15 15 16 17 17 17 16 17 17 17 17 17 17 17 16 16 16
12 14 10 13 14 16 15 12 10 9 10 10 10 9 9 9 9 9 9 10 11 12 13 13 13 13 14 14 14 15 15 16 16 17 17 17 17 18 18 18 18 18 18 18 18 18 17 17 16
13 12 14 14 18 18 16 14 14 11 11 10 10 10 8 9 9 9 9 10 11 12 13 13 13 14 14 15 15 16 16 16 17 17 18 18 18 18 19 19 19 19 19 19 19 18 18 18 17
15 15 14 14 13 16 17 16 11 11 10 10 9 9 8 8 8 9 10 10 11 12 12 13 13 14 14 15 15 16 17 17 18 19 19 19 19 19 19 20 20 20 20 20 20 20 20 20 19
12 13 13 16 16 14 15 16 11 10 10 10 9 9 8 7 7 8 9 10 11 12 12 13 13 14 14 15 16 17 18 19 19 20 20 20 20 20 20 20 21 21 21 21 21 22 21 21 21

GFSSGP_con_lsi_006.txt.gz
Lid_Strength_Index
-1 -0 0 3 9 9 11 10 8 8 9 7 6 7 8 7 8 11 4 3 1 0 -1 -1 -2 -1 -1 -1 -1 -1 -1 -2 -1 -1 -2 -1 -2 -2 -2 -1 -1 -1 -1 -2 -1 -1 -1 -1 -1
0 0 2 5 11 13 11 9 9 8 7 7 7 7 8 8 5 6 6 3 1 1 -0 -0 -2 -2 -2 -1 -2 -2 -1 -1 -1 -1 -1 -2 -1 -1 -1 -2 -1 -2 -2 -2 -2 -2 -1 -1 -1
1 1 6 8 10 12 11 10 9 7 7 8 8 8 7 7 5 5 5 3 2 2 1 0 -1 -1 -1 -2 -1 -2 -2 -2 -2 -2 -2 -2 -2 -2 -2 -2 -2 -1 -1 -2 -2 -2 -2 -2 -1
2 4 5 10 11 9 10 9 8 8 8 8 8 10 8 6 6 5 5 3 3 3 2 1 -0 -0 -0 -0 -0 -0 -0 -0 -1 -1 -0 0 0 0 0 0 0 0 -0 -1 -2 -2 -1 -1 -1
4 5 9 10 10 10 9 8 8 8 8 8 9 10 9 7 5 6 7 5 4 4 3 3 1 1 1 1 1 1 1 1 1 1 2 2 2 2 2 2 2 1 1 1 0 1 1 1 -0
6 7 10 12 10 9 9 8 9 9 8 9 9 10 9 7 7 7 7 7 5 5 4 4 3 2 2 2 2 2 2 3 3 3 3 3 3 3 3 3 3 2 2 2 2 2 2 2 2
7 9 11 10 10 9 9 8 9 9 9 9 9 10 10 8 7 7 8 9 8 7 6 6 6 5 4 4 4 3 4 4 4 5 5 5 5 5 5 5 4 3 3 3 3 3 3 3 3
7 8 10 10 10 10 9 9 9 9 9 8 7 10 10 8 7 8 9 9 9 9 8 8 8 7 7 8 5 5 5 5 6 6 7 7 6 6 5 6 5 4 4 4 4 3 3 4 3
4 10 11 9 10 9 9 10 8 9 10 9 8 9 9 7 8 9 10 10 10 9 9 9 9 9 8 8 7 6 6 7 7 7 7 6 8 9 8 7 6 5 5 5 5 4 5 5 5
7 10 9 8 8 9 8 9 9 10 10 9 9 8 8 8 10 10 11 11 11 11 11 10 10 10 9 9 9 9 9 9 9 9 9 9 9 9 8 7 6 6 6 6 6 6 6 7 8
7 9 8 8 7 8 8 9 8 9 10 9 9 8 9 9 10 10 10 10 10 10 10 10 10 10 10 11 10 10 10 10 10 10 10 10 9 10 10 11 11 10 8 10 10 10 9 10 9
9 7 7 6 7 8 9 8 9 9 9 8 9 8 9 9 10 10 9 9 10 10 10 11 10 10 10 10 10 10 10 10 10 11 11 11 11 12 12 12 12 12 11 12 12 11 11 10 10
8 8 7 7 8 8 8 9 9 9 8 7 7 8 9 9 9 9 9 9 9 9 10 11 11 11 10 10 11 11 11 11 11 11 12 12 12 13 12 12 12 13 13 13 13 12 12 12 11
8 8 8 8 8 8 9 9 9 8 7 7 7 9 9 9 9 9 9 9 8 9 10 10 11 11 10 11 11 11 11 11 12 12 12 12 13 14 13 13 13 13 13 13 13 13 13 12 11
8 10 9 8 8 9 9 11 10 8 8 8 8 8 8 8 8 8 8 9 8 9 10 10 11 11 11 11 11 11 11 11 12 12 12 13 13 14 14 14 14 14 14 14 14 13 13 13 12
10 10 12 9 8 9 10 13 9 8 8 8 9 9 8 8 8 8 8 8 9 9 10 11 10 11 11 12 12 12 12 12 13 13 13 13 13 14 15 15 15 14 14 14 14 14 14 14 13
10 13 12 10 8 9 11 12 9 9 10 10 9 9 9 8 8 8 8 9 9 10 11 11 12 12 12 12 12 12 13 13 13 14 14 14 14 14 15 15 15 14 15 15 14 15 15 15 14
13 13 11 12 10 10 12 12 10 9 9 10 9 8 8 8 8 8 9 9 10 11 11 12 12 12 12 13 13 13 13 14 14 14 14 14 14 14 15 15 15 15 15 15 15 15 15 15 14
10 11 12 10 9 11 11 11 10 10 9 9 9 8 8 9 8 8 9 10 11 12 12 12 13 13 12 13 14 15 15 15 15 14 14 14 15 15 16 16 16 16 16 16 16 16 16 16 15
11 12 12 11 10 11 12 12 10 10 9 9 9 9 9 10 10 10 11 11 11 12 13 13 13 13 12 13 14 15 15 15 15 14 15 14 15 15 16 16 17 16 17 16 16 16 16 16 15
12 13 13 13 11 12 14 14 13 11 9 9 9 9 10 11 11 12 12 11 12 13 13 13 13 13 13 13 14 15 16 16 16 16 16 15 15 15 16 16 17 17 17 17 17 17 17 17 17
14 11 11 12 14 16 13 17 14 13 12 11 10 10 11 11 11 11 12 12 12 12 13 13 13 13 13 14 15 16 17 18 17 16 16 16 15 16 16 16 17 17 17 17 17 16 17 17 18
13 12 13 13 14 15 15 17 16 12 13 12 11 10 10 10 11 12 12 12 12 13 13 13 13 13 13 14 15 16 17 17 16 16 17 17 17 16 17 17 17 18 18 17 17 17 18 17 18
12 13 14 15 16 19 16 16 18 15 13 13 11 11 11 11 11 11 12 12 12 13 13 13 13 13 14 14 15 15 16 17 17 18 18 18 18 17 17 17 18 18 18 18 18 18 18 18 17
13 15 18 19 20 19 15 17 15 13 12 12 12 11 11 11 12 12 12 13 13 13 13 13 14 14 14 15 15 16 16 16 17 17 17 18 19 19 19 18 18 19 19 19 19 18 18 18 18
15 14 18 21 20 18 18 19 16 12 11 11 11 11 11 12 12 12 12 12 13 13 13 13 14 14 15 15 16 16 16 15 16 17 17 18 19 19 19 19 19 19 19 20 19 19 19 18 18
15 17 14 17 21 21 17 16 14 12 12 12 12 12 12 12 12 12 12 12 13 13 13 14 14 14 15 15 15 15 15 17 17 18 19 19 19 19 19 20 20 20 20 20 20 19 19 19 19
15 14 18 17 23 24 18 18 16 13 12 13 13 13 12 12 11 12 12 12 12 13 13 13 14 14 15 15 15 16 16 18 18 19 19 20 20 20 21 20 21 21 21 21 21 20 19 20 19
17 17 16 16 16 22 21 18 15 14 13 13 13 12 11 11 12 12 12 12 12 13 13 14 14 15 15 16 16 17 17 18 19 19 20 20 20 21 21 21 21 21 21 21 21 21 21 21 21
14 15 15 18 19 19 18 17 12 13 13 13 12 11 11 11 11 11 12 12 13 13 14 14 14 15 15 16 17 17 18 19 19 20 20 20 21 21 21 22 22 22 22 22 22 22 22 22 22

GFSSGP_con_lsi_009.txt.gz
Lid_Strength_Index
-0 0 2 4 9 12 14 12 11 10 10 9 7 8 8 8 8 11 5 2 1 0 -0 -1 -2 -1 -1 -1 -1 -2 -1 -1 -1 -1 -1 -2 -2 -2 -2 -2 -1 -1 -1 -2 -2 -2 -1 -1 -1
2 1 4 7 12 14 13 12 11 10 9 8 7 8 8 9 6 6 6 2 2 1 -0 -0 -2 -1 -1 -1 -1 -1 -1 -1 -1 -1 -2 -2 -1 -1 -2 -2 -2 -2 -2 -1 -2 -2 -2 -2 -1
2 2 7 10 12 14 14 12 11 10 9 9 10 9 9 8 7 6 5 2 2 2 1 -1 -2 -2 -2 -2 -2 -2 -2 -1 -1 -2 -2 -2 -2 -2 -2 -1 -1 -1 -2 -2 -2 -2 -2 -1 -1
5 6 8 13 14 12 13 12 10 10 10 10 9 11 9 7 6 6 4 3 3 2 1 -1 -2 -2 -2 -2 -2 -2 -2 -2 -1 -1 -1 -1 -0 0 1 1 1 1 0 -1 -1 -0 0 0 -0
6 8 11 13 13 12 12 10 10 10 10 10 10 11 10 8 7 6 5 3 4 4 3 1 -1 -1 -1 -0 -0 -0 -0 -0 0 1 1 2 2 2 2 2 2 2 1 1 1 1 1 1 1
9 9 13 14 13 11 11 9 10 10 10 10 11 11 10 8 8 8 7 5 4 4 4 3 0 -0 0 1 1 1 1 1 2 2 2 2 3 3 3 3 2 3 2 2 2 2 2 2 2
8 10 12 12 12 11 11 10 11 10 10 10 9 11 11 10 9 9 9 7 6 5 5 5 5 3 2 1 2 2 2 3 3 3 4 4 4 4 5 4 3 3 3 3 3 3 3 3 3
9 10 13 13 12 11 10 10 10 10 10 9 8 11 11 9 8 9 10 10 9 7 7 7 7 7 7 6 2 3 3 4 5 5 5 5 5 5 6 6 5 4 4 4 4 4 4 4 4
7 12 14 12 11 11 10 11 10 10 10 10 8 10 9 8 9 10 12 11 11 9 9 9 8 8 9 8 6 4 4 5 6 6 6 6 10 9 8 6 6 5 5 5 5 5 6 6 6
9 12 11 10 11 11 10 10 10 11 11 11 10 10 9 9 10 10 12 12 12 11 11 10 10 9 9 8 8 9 8 9 9 9 10 9 10 9 9 7 7 7 7 7 7 6 7 8 10
10 11 9 9 9 10 10 11 9 10 11 10 10 10 10 10 10 10 11 11 11 11 11 10 10 10 10 11 10 11 10 11 10 11 10 10 11 11 11 12 12 12 10 12 11 11 11 12 11
10 8 8 8 8 9 10 9 10 10 9 8 9 9 9 10 10 10 11 11 11 11 11 11 10 10 11 11 10 11 11 11 11 11 11 11 12 13 13 13 13 13 13 14 13 13 12 12 12
10 9 8 8 9 9 9 10 10 10 9 8 8 9 10 10 10 10 10 10 10 11 11 11 11 11 11 11 11 11 11 11 12 12 12 12 13 14 13 14 14 14 14 14 14 14 13 13 12
10 9 9 9 8 9 9 10 10 9 8 9 8 9 10 9 9 10 11 10 10 10 11 11 11 11 11 11 11 11 12 12 12 13 13 12 13 14 14 14 14 14 15 14 15 14 14 14 13
9 11 10 9 9 10 9 11 11 8 9 9 9 9 9 9 9 9 9 10 9 9 10 11 11 11 11 12 12 11 12 12 13 13 13 13 14 14 15 15 15 15 15 15 15 15 14 15 14
12 13 14 11 10 10 10 13 10 9 10 10 9 10 10 9 9 8 9 9 9 10 11 11 10 11 11 12 12 12 12 13 13 13 14 14 14 14 15 15 15 15 15 15 16 16 15 16 15
14 16 14 12 10 11 11 13 10 9 10 10 11 11 10 9 10 8 9 9 9 9 11 12 11 12 12 13 12 13 13 13 14 14 14 15 14 14 15 16 16 15 16 16 16 16 16 16 16
16 15 14 14 12 12 13 12 10 10 11 11 11 11 11 9 8 9 9 9 9 10 11 12 12 13 13 13 13 14 14 14 15 15 15 15 15 15 16 16 16 16 16 16 16 17 16 16 16
14 15 15 12 10 11 11 12 11 10 11 11 11 10 9 9 9 10 9 9 10 12 13 13 13 13 13 13 14 15 14 15 16 15 15 15 15 15 16 16 16 16 17 17 16 16 17 17 16
13 14 14 12 11 12 13 13 11 11 11 10 10 10 9 9 10 10 11 12 12 13 13 13 13 13 13 13 13 15 15 16 16 15 15 15 15 15 16 16 17 17 17 17 17 17 17 17 17
13 14 14 14 13 13 14 15 13 12 11 10 9 9 9 9 11 12 12 12 12 13 13 13 13 13 13 13 14 16 16 16 17 16 16 16 16 16 16 17 17 17 17 18 18 18 18 18 18
15 12 13 14 16 17 15 19 16 14 13 12 10 10 10 12 12 12 12 13 13 13 13 13 13 13 13 14 14 16 15 16 15 15 15 16 16 16 16 17 17 18 17 18 18 17 18 18 19
14 14 14 15 16 18 17 18 17 15 15 13 11 11 10 11 12 12 12 11 12 13 13 13 14 14 14 14 14 15 16 16 18 17 16 17 17 17 17 17 18 18 18 18 18 18 19 18 19
14 15 16 17 18 20 18 17 18 17 14 14 12 11 10 10 12 12 12 13 13 14 14 14 14 14 13 14 14 15 16 17 18 17 17 17 17 17 18 18 18 18 18 18 18 18 19 19 19
15 17 21 22 22 20 16 18 16 15 14 13 12 12 11 12 12 13 13 13 13 14 14 14 14 14 14 14 15 15 16 16 17 17 16 18 18 19 19 19 19 19 19 19 19 19 19 19 20
16 15 19 24 21 19 19 21 17 13 12 12 12 11 13 13 13 13 13 13 13 13 14 13 14 14 14 14 15 15 16 16 16 16 16 17 17 18 19 19 19 20 19 20 20 20 20 20 19
16 17 14 18 25 22 18 17 15 13 13 13 13 14 13 13 13 13 13 13 13 13 13 13 14 14 15 15 15 15 16 16 16 17 17 17 18 18 19 19 20 20 20 20 20 20 20 20 19
15 15 18 19 24 25 18 20 17 14 13 12 14 14 13 12 12 13 13 13 13 12 13 13 13 14 14 15 15 15 16 15 16 17 18 18 18 19 19 20 20 20 20 20 21 21 20 21 20
17 17 16 16 18 19 20 18 15 15 14 13 14 13 13 12 12 12 12 12 12 13 14 14 14 14 15 15 15 16 16 16 17 17 18 19 19 19 20 20 20 20 21 21 21 21 21 21 21
15 15 15 17 19 19 17 17 11 13 13 13 13 13 14 12 12 12 12 12 13 14 14 14 14 14 14 15 16 16 17 18 18 18 19 19 19 20 20 20 20 21 21 21 22 22 22 22 22

GFSSGP_con_lsi_012.txt.gz
Lid_Strength_Index
-0 2 2 5 10 12 14 12 12 11 11 10 8 9 9 8 9 11 5 2 1 0 -0 -0 -1 -1 -1 -1 -1 -1 -1 -1 -1 -1 -1 -2 -1 -1 -2 -1 -1 -1 -1 -2 -2 -2 -1 -1 -1
3 2 4 8 12 15 14 12 11 10 10 9 9 9 10 10 7 6 4 2 0 -0 0 0 -1 -1 -1 -1 -1 -1 -1 -2 -1 -2 -1 -2 -1 -2 -2 -2 -2 -1 -1 -2 -2 -2 -1 -1 -1
3 4 7 10 13 14 14 12 12 11 10 10 11 10 9 9 8 6 5 2 1 1 0 -0 -2 -1 -2 -1 -1 -1 -1 -1 -1 -1 -2 -2 -2 -2 -2 -1 -1 -1 -2 -2 -2 -1 -1 -1 -1
5 7 9 12 14 12 12 12 11 11 11 10 10 10 10 7 7 6 4 2 2 2 1 -1 -2 -2 -2 -2 -2 -2 -2 -2 -2 -2 -2 -1 -1 -0 0 0 0 0 -0 0 0 0 1 1 1
7 9 12 14 14 13 12 11 11 11 11 11 10 11 11 8 7 6 4 3 3 3 2 0 -2 -2 -2 -2 -2 -2 -2 -1 -1 -0 -0 0 1 1 1 1 1 1 1 1 1 1 2 2 2
9 10 14 15 13 11 12 10 11 11 11 11 11 12 10 9 7 6 5 5 3 3 3 1 -1 -2 -2 -1 -1 -1 -1 -0 0 1 1 1 2 2 2 2 2 2 2 2 2 2 2 2 2
10 11 13 14 12 12 11 10 11 11 11 10 10 11 11 10 8 7 6 6 5 5 4 4 3 1 -1 -1 -0 0 1 1 1 2 2 2 3 3 3 3 3 2 2 2 3 3 4 3 4
9 11 13 14 13 12 11 11 10 10 10 10 9 11 11 10 9 9 8 7 7 6 6 6 6 5 5 3 1 1 1 2 2 3 3 3 4 5 4 4 4 3 3 4 4 4 5 5 5
8 13 14 13 12 12 11 11 10 11 11 10 9 10 10 9 10 11 12 10 8 7 7 7 7 7 7 6 4 2 2 3 3 4 4 6 9 9 8 5 5 5 5 5 5 6 6 7 7
10 14 13 11 11 12 11 11 11 12 11 11 10 10 9 9 10 11 12 11 9 9 9 8 8 9 9 7 7 7 7 8 9 9 9 10 11 10 9 7 6 7 7 7 7 7 8 10 12
10 12 10 9 10 10 10 11 10 11 11 10 10 10 10 11 10 10 11 11 10 9 9 8 9 9 10 9 9 10 10 11 10 11 10 11 10 11 12 12 12 13 11 13 12 13 13 13 13
11 9 9 8 8 10 11 10 11 11 8 9 9 10 10 11 10 10 10 11 12 11 10 9 10 10 10 11 10 11 11 11 12 12 11 12 13 13 13 13 14 14 14 15 14 14 13 13 13
10 10 9 8 9 10 9 10 11 10 9 9 9 9 10 10 10 9 9 10 11 12 11 10 10 10 10 11 11 11 11 11 12 12 11 12 13 14 14 14 14 15 15 15 15 15 14 14 14
11 10 10 9 9 9 10 11 10 8 9 9 9 9 10 10 9 10 11 10 11 11 11 11 10 10 11 11 11 11 11 11 12 13 13 12 13 14 14 14 15 15 15 15 15 15 15 15 14
10 11 11 10 10 10 10 12 12 8 10 9 9 10 10 10 9 10 9 10 10 10 10 11 11 11 11 11 11 11 11 11 12 13 13 13 14 14 15 15 15 15 15 15 16 15 15 16 15
13 13 14 12 11 11 11 13 11 9 10 10 10 10 10 9 9 9 9 9 10 10 10 11 10 11 11 11 11 11 12 12 12 13 14 14 14 14 15 15 16 16 16 16 16 16 16 16 16
15 16 15 13 11 11 12 13 11 10 11 11 10 11 10 10 10 9 9 9 10 9 10 11 11 11 11 12 12 12 12 12 12 14 14 14 14 15 16 16 16 16 16 16 16 17 17 17 17
16 17 15 15 13 13 13 13 10 10 12 12 11 12 12 11 9 8 9 9 9 9 10 11 11 11 12 13 14 14 14 14 14 14 15 15 15 15 16 16 16 16 17 17 17 17 17 17 17
16 16 16 14 12 13 13 13 11 10 11 12 11 10 9 10 8 9 10 9 10 10 11 12 12 13 13 13 14 14 14 14 15 15 15 15 15 15 16 17 17 17 17 17 17 17 18 18 18
14 15 15 13 12 14 14 14 12 12 11 10 10 10 10 9 8 11 11 11 11 11 12 13 13 13 12 12 12 13 14 16 14 15 15 15 15 16 16 17 17 17 18 18 18 17 18 18 18
15 15 15 15 14 15 16 16 15 13 12 10 11 10 9 9 8 10 12 12 12 12 12 13 12 13 12 13 14 16 16 17 17 16 16 16 15 16 16 17 17 18 18 18 18 18 18 19 19
15 13 14 15 17 18 17 19 17 15 14 13 12 10 10 9 9 10 12 13 13 12 12 12 12 13 13 13 14 15 14 15 15 15 16 16 16 16 17 17 17 18 18 18 18 18 18 19 19
14 15 15 16 18 18 19 19 17 15 16 14 12 11 11 10 11 12 12 12 12 13 13 13 13 13 13 14 14 14 14 14 17 17 17 17 17 17 17 17 18 18 18 18 18 19 18 19 19
14 15 16 18 18 20 18 18 19 17 15 14 12 12 11 10 11 12 13 13 14 15 14 14 14 14 14 14 14 14 14 16 17 17 17 17 17 17 17 18 18 18 19 19 19 19 19 19 19
15 17 21 22 23 21 17 19 15 15 14 13 12 12 11 11 13 13 13 14 15 15 15 14 14 14 14 14 14 14 14 16 16 16 16 17 17 18 18 18 19 19 19 19 19 19 19 20 20
16 16 18 23 21 18 19 20 17 14 12 12 12 12 13 13 13 13 13 13 14 14 15 14 15 14 14 14 14 14 15 16 15 16 16 16 16 17 17 18 19 19 19 19 19 20 20 20 19
17 18 15 18 23 24 18 16 14 15 14 13 13 14 13 13 13 13 14 14 14 15 14 14 14 14 14 14 14 15 15 16 15 16 16 16 17 17 19 18 19 19 19 20 20 20 20 20 19
15 15 18 19 22 23 19 20 16 15 14 14 14 14 14 13 14 13 13 13 14 14 14 14 14 13 14 14 14 15 15 16 15 18 17 17 18 18 19 19 19 20 20 20 20 20 20 20 20
17 17 17 16 17 19 20 17 14 15 15 14 14 13 13 13 12 12 12 13 13 14 14 14 14 14 15 15 15 15 16 16 16 17 17 18 18 18 19 19 19 20 20 20 20 21 21 21 21
15 14 14 17 18 18 17 16 11 11 11 11 11 12 13 13 12 12 12 11 12 13 14 13 13 14 14 14 15 16 16 16 17 17 17 18 18 19 19 19 19 20 20 20 21 21 21 21 21

GFSSGP_con_lsi_015.txt.gz
Lid_Strength_Index
1 3 3 6 10 12 14 13 12 12 12 11 9 10 9 9 9 11 5 2 1 0 0 -0 -1 -2 -1 -1 -1 -1 -1 -1 -1 -1 -1 -1 -1 -1 -1 -1 -1 -1 -1 -2 -1 -2 -2 -1 -1
3 3 5 9 12 16 14 12 12 11 11 10 10 10 10 10 7 6 4 2 1 1 1 0 -1 -1 -1 -1 -1 -1 -1 -1 -1 -1 -1 -1 -1 -1 -1 -1 -1 -1 -1 -2 -2 -1 -2 -2 -2
4 4 7 11 14 15 14 13 12 11 11 11 10 10 10 9 8 6 4 2 1 2 1 0 -1 -1 -1 -1 -1 -1 -1 -2 -1 -2 -1 -1 -2 -2 -2 -2 -2 -2 -2 -2 -1 -1 -0 -0 -0
6 7 10 12 13 12 12 12 12 11 11 10 11 10 10 8 7 6 4 2 2 2 2 -0 -1 -1 -1 -1 -1 -1 -2 -1 -1 -2 -2 -2 -2 -1 -1 -1 -1 -1 -1 -0 0 1 1 1 1
8 9 13 14 14 13 12 11 11 11 12 11 10 11 11 9 8 6 3 2 3 3 2 1 -1 -1 -1 -1 -1 -1 -2 -2 -2 -2 -2 -1 -1 -0 -0 0 0 0 0 1 1 1 1 1 1
10 11 14 15 14 12 11 11 11 11 12 12 11 10 10 10 7 6 4 3 3 3 2 1 -0 -1 -2 -1 -1 -2 -2 -2 -1 -1 -0 0 0 1 1 1 1 1 1 1 1 2 2 2 2
10 11 14 15 13 12 11 11 12 11 12 11 11 12 11 10 8 6 5 5 4 3 3 2 2 -0 -1 -1 -2 -2 -2 -1 -0 0 1 1 1 1 2 2 1 1 2 2 2 3 3 3 3
10 11 14 14 14 12 11 12 11 11 10 11 9 11 11 11 8 7 6 6 6 5 4 4 4 3 2 2 -0 -1 -1 -0 1 1 1 2 3 3 3 2 2 2 2 3 4 4 5 4 5
10 14 15 14 13 12 11 12 11 11 11 11 9 11 10 10 9 9 9 8 7 6 6 6 5 5 5 5 3 1 1 1 1 2 2 4 8 8 7 4 3 4 4 4 5 6 7 7 7
10 15 14 12 12 12 11 11 11 10 12 12 11 10 10 10 10 9 10 8 8 7 7 7 7 7 7 6 5 6 5 6 7 7 8 10 10 10 8 6 5 5 6 5 6 7 8 11 13
11 12 11 10 10 10 11 12 11 12 11 11 10 10 10 11 11 9 9 7 7 7 7 7 7 8 8 8 7 8 9 9 10 10 11 11 11 10 11 12 13 13 11 13 12 13 13 13 13
12 10 10 9 9 10 11 10 11 11 8 9 9 10 10 11 11 10 10 9 9 9 8 8 8 9 10 9 9 10 10 11 11 11 11 12 12 13 13 14 14 15 15 15 15 14 14 14 14
11 10 9 9 9 9 9 10 11 11 8 9 9 10 10 10 9 9 9 10 11 10 9 8 8 9 9 10 10 10 11 11 11 12 11 12 13 13 14 14 15 15 15 15 15 15 15 15 14
11 10 10 10 10 10 10 10 11 8 10 10 10 10 10 10 9 10 11 10 11 10 10 9 9 9 10 10 10 10 11 11 12 12 12 12 13 14 14 15 15 15 15 15 15 15 16 16 15
11 12 12 11 11 10 10 12 12 8 10 10 10 10 10 10 10 10 9 9 9 10 11 10 9 9 10 10 11 11 11 11 12 12 12 12 13 14 15 15 15 16 16 15 16 16 16 16 16
14 14 15 12 12 12 11 14 10 10 10 10 10 11 11 10 10 9 8 9 9 10 11 11 9 10 10 10 11 11 11 11 12 13 13 13 13 14 15 15 16 16 16 16 16 17 17 17 17
17 18 16 14 11 12 13 14 11 11 11 11 11 11 10 10 10 10 9 9 9 10 10 11 11 10 10 11 11 11 12 12 12 14 14 14 14 14 15 16 16 16 16 17 16 17 17 18 17
18 18 17 17 14 14 14 14 12 10 12 12 11 11 10 9 9 8 9 9 9 10 10 10 11 11 11 11 12 13 13 13 13 14 14 14 14 15 16 16 16 16 17 17 17 18 17 18 18
17 17 17 15 13 15 15 14 13 11 11 11 12 11 10 9 8 8 10 10 10 11 10 11 11 11 11 13 14 13 13 14 14 14 14 15 15 15 16 17 17 17 17 17 17 18 18 18 18
15 16 16 14 13 16 15 15 14 13 12 11 10 10 10 10 9 9 11 11 11 10 10 11 11 12 12 12 12 13 12 14 13 14 15 15 15 16 16 17 17 17 18 17 18 18 18 18 19
16 17 15 16 15 16 17 16 15 14 13 11 11 11 10 10 10 9 12 12 12 12 11 11 11 12 11 12 13 16 17 17 17 16 16 15 15 16 16 17 17 17 17 18 18 18 18 19 19
16 14 14 15 18 19 17 20 18 15 14 14 12 11 11 11 10 10 11 13 13 11 12 11 12 12 12 12 13 14 14 15 15 14 15 15 16 16 16 17 17 18 18 18 18 18 18 19 19
15 15 16 17 19 19 19 21 18 16 16 14 13 12 11 11 11 11 12 12 12 13 13 13 12 13 12 13 13 13 14 13 15 16 16 16 17 16 17 17 18 18 18 18 18 19 19 19 19
15 16 17 19 19 21 18 18 18 17 15 15 13 12 12 11 11 13 13 13 14 14 14 14 13 13 13 13 13 13 13 15 16 16 16 16 16 17 17 17 18 18 18 19 19 19 19 19 19
16 18 21 22 23 21 18 19 16 14 14 14 12 12 13 13 13 13 13 13 15 16 15 15 14 14 14 14 14 14 14 15 15 16 15 16 17 17 18 17 18 18 18 18 18 19 19 19 19
17 17 20 25 21 18 19 20 15 14 13 14 14 13 14 13 14 13 13 14 14 15 16 15 15 15 15 14 14 14 14 14 15 15 15 16 16 16 17 17 18 18 18 19 19 19 20 20 19
18 18 15 18 21 22 17 16 13 15 14 15 14 14 14 15 14 13 13 14 14 15 16 15 15 15 15 14 14 14 14 14 15 16 16 16 16 16 17 17 18 18 18 19 19 20 20 20 19
15 15 19 19 22 23 20 18 17 14 13 13 14 14 13 14 13 13 13 13 14 14 15 15 15 14 14 15 14 14 15 15 15 17 17 16 16 17 18 18 18 18 19 19 20 20 20 20 20
17 17 17 17 17 19 19 17 12 13 14 14 14 14 13 13 12 12 12 12 13 13 14 14 15 15 14 14 14 15 15 15 16 17 17 16 17 17 18 18 18 19 19 19 20 20 20 21 21
14 14 14 17 17 16 16 16 10 10 11 13 11 10 10 12 12 11 11 11 11 12 14 14 14 14 14 13 14 15 15 16 16 16 17 16 17 17 17 18 18 18 19 19 20 21 21 21 21

GFSSGP_con_lsi_021.txt.gz
Lid_Strength_Index
1 3 3 4 9 10 12 11 10 10 9 8 8 8 8 8 8 9 3 0 0 -0 -1 -1 -1 -2 -2 -2 -2 -2 -1 -1 -2 -2 -2 -1 -1 -2 -2 -1 -1 -1 -2 -2 -2 -1 -1 -1 -1
3 3 4 7 11 14 14 11 10 9 8 8 8 8 8 8 6 5 3 1 -0 -0 -1 -1 -1 -1 -1 -1 -2 -2 -1 -2 -2 -2 -2 -2 -2 -1 -1 -1 -1 -1 -1 -1 -1 -1 -2 -2 -2
3 4 6 9 13 14 13 10 10 9 9 8 8 7 7 7 6 4 2 0 -0 -0 -1 -1 -1 -2 -2 -2 -2 -1 -2 -2 -2 -2 -2 -1 -1 -1 -1 -1 -1 -1 -1 -2 -2 -1 -1 -1 -1
5 6 8 10 12 11 11 9 10 9 8 8 8 9 8 6 5 4 2 1 0 -0 -1 -1 -1 -2 -2 -2 -2 -2 -2 -2 -2 -2 -1 -2 -1 -1 -1 -1 -1 -1 -2 -2 -1 -0 -0 0 0
7 9 12 13 13 11 10 9 9 9 9 9 8 9 8 6 6 4 1 1 0 0 -0 -1 -1 -1 -2 -1 -1 -1 -2 -2 -2 -2 -1 -1 -2 -2 -2 -2 -2 -1 -1 -0 -0 -0 0 1 1
9 9 12 14 13 11 10 9 9 9 9 9 9 9 8 7 6 5 1 1 1 1 1 0 0 -0 -1 -1 -1 -2 -2 -2 -2 -2 -1 -2 -2 -2 -1 -1 -1 -0 -0 -0 0 1 1 1 2
9 11 13 13 13 12 10 10 10 9 9 9 8 9 7 7 6 4 2 2 1 2 2 1 -0 -0 -0 -1 -1 -1 -2 -2 -1 -2 -2 -2 -1 -1 -0 -0 -0 -0 -0 0 1 1 2 2 3
9 10 12 13 13 12 10 10 9 9 9 8 8 9 8 6 6 4 3 3 2 2 2 1 0 -0 -1 -1 0 -0 -1 -1 -2 -2 -2 -1 -1 -1 -0 -0 -0 0 1 1 2 2 3 3 4
9 12 14 13 13 12 10 10 9 9 9 9 8 8 7 8 5 5 4 4 4 3 2 2 1 1 1 1 0 0 -0 -0 -1 -1 -0 1 2 2 2 2 0 1 2 2 3 3 4 5 6
10 13 13 12 12 11 10 10 9 9 9 10 9 8 8 8 6 5 5 4 4 3 3 2 2 2 2 2 1 1 1 0 0 1 2 4 4 4 4 2 1 1 2 3 4 5 7 10 10
10 12 11 11 11 10 10 10 9 10 10 9 9 8 9 9 8 6 5 4 3 3 3 3 2 2 3 2 3 2 2 2 2 3 5 5 6 5 5 5 6 6 6 7 8 10 10 10 11
12 10 11 9 9 10 10 10 11 10 7 7 8 8 8 9 9 7 6 5 4 4 3 3 3 3 3 3 3 3 3 4 4 5 6 7 7 6 7 7 8 8 9 10 11 11 11 11 11
11 11 10 10 10 10 10 10 10 10 8 8 9 9 9 9 9 8 7 5 5 5 4 4 4 3 3 4 3 4 4 4 5 6 7 8 8 8 8 9 10 11 11 11 12 12 12 12 12
12 11 11 11 11 11 10 10 11 10 9 9 10 9 10 10 9 9 9 8 7 6 5 4 4 3 4 4 4 4 4 5 6 6 7 9 8 8 9 11 12 12 12 12 12 12 12 12 12
12 13 13 13 12 12 12 12 13 9 10 10 9 10 10 10 10 9 8 8 7 7 6 5 5 4 4 4 5 4 5 6 6 7 8 9 9 9 10 11 12 12 12 12 12 13 13 13 13
14 15 16 14 13 13 12 15 12 11 12 11 11 11 10 10 9 9 8 8 8 8 8 6 6 5 5 5 5 5 6 6 6 8 8 9 10 10 11 12 12 12 12 12 12 13 13 13 13
16 17 17 15 13 13 13 15 12 12 13 12 11 10 11 9 8 9 9 9 8 8 8 9 7 6 6 5 5 6 6 7 7 8 9 9 10 11 11 12 12 13 13 13 13 14 14 14 14
17 18 18 17 14 15 15 15 13 12 12 12 11 11 10 10 9 8 9 10 9 9 8 9 9 7 7 6 6 7 8 7 8 9 9 10 10 11 11 12 13 14 14 13 13 14 14 14 14
17 17 18 16 14 15 14 15 14 13 13 12 11 11 11 10 9 9 9 9 10 10 10 10 10 9 8 8 9 10 10 9 9 9 10 10 11 12 12 13 14 14 14 14 14 14 15 15 15
16 16 17 15 13 16 16 15 13 13 12 12 11 11 11 11 10 10 10 11 11 10 11 10 11 10 9 8 8 8 9 9 9 9 10 11 11 12 12 13 14 14 14 15 15 14 15 15 15
17 18 17 17 16 16 17 17 16 14 14 12 11 11 11 11 11 10 11 11 11 11 11 11 11 11 10 9 9 13 12 12 12 11 11 11 11 12 12 13 14 14 14 15 15 14 14 15 16
17 15 16 17 18 20 17 21 18 15 14 14 13 13 12 12 12 11 12 12 11 11 11 11 11 11 11 10 11 11 11 12 11 11 11 12 12 12 12 13 14 14 14 14 15 15 14 14 15
16 16 16 17 18 19 19 20 18 17 15 14 12 12 12 12 13 13 13 12 12 12 12 12 12 12 11 11 11 11 11 11 12 11 12 12 13 12 13 13 14 14 14 14 15 15 15 14 15
15 17 17 18 19 22 19 19 19 17 15 15 12 12 12 13 12 12 12 13 12 13 13 13 13 13 12 12 11 12 11 12 13 13 13 13 14 14 14 14 14 14 14 15 15 15 15 15 15
16 18 21 22 22 21 19 20 17 15 14 13 12 12 12 13 13 12 11 12 12 13 14 14 14 14 13 13 12 12 12 12 13 13 13 14 14 15 15 15 15 15 15 15 15 15 15 15 15
17 16 18 22 23 19 18 19 16 14 13 13 14 13 13 13 13 12 13 13 13 13 14 14 14 14 14 14 13 13 12 12 13 13 13 13 14 14 14 15 15 15 15 15 16 15 15 15 15
16 17 15 17 18 20 18 16 13 13 13 14 14 14 14 14 14 14 13 13 13 13 13 14 14 14 14 14 14 14 13 13 14 14 14 14 13 14 14 15 15 15 15 15 16 16 16 16 16
14 14 17 17 21 22 18 18 16 14 14 14 15 15 14 14 14 13 13 13 13 13 12 12 12 13 13 13 14 14 14 13 13 14 15 14 14 14 14 15 15 15 15 16 16 16 16 16 16
16 16 15 15 15 19 20 17 13 14 15 15 15 15 15 15 14 13 13 12 12 12 12 12 12 12 13 13 13 14 14 14 14 15 15 14 14 14 15 15 15 15 16 16 16 16 16 17 16
13 12 13 15 17 16 16 16 10 14 14 14 16 15 15 15 14 13 13 12 12 12 12 12 13 12 13 13 13 14 14 15 15 15 15 14 14 14 14 15 15 15 16 16 16 16 17 17 17

GFSSGP_con_lsi_024.txt.gz
Lid_Strength_Index
-0 -0 -1 1 7 7 9 9 7 7 7 6 6 6 6 5 7 8 1 -0 -0 -0 -1 -1 -1 -1 -1 -1 -2 -1 -1 -1 -1 -1 -2 -1 -1 -1 -1 -1 -1 -1 -1 -1 -2 -1 -1 -1 -1
1 1 0 3 8 10 9 8 8 7 6 6 6 6 6 6 4 3 2 -0 -1 -1 -1 -1 -1 -1 -1 -1 -1 -1 -1 -1 -2 -1 -1 -2 -1 -1 -1 -1 -1 -1 -1 -1 -1 -1 -1 -1 -1
2 2 3 5 8 10 9 7 7 7 6 6 6 5 5 5 4 2 0 -0 -1 -1 -1 -1 -1 -1 -1 -1 -1 -1 -1 -2 -2 -2 -2 -1 -1 -1 -1 -1 -1 -1 -1 -1 -1 -1 -1 -1 -1
1 2 4 8 9 8 8 7 6 6 6 6 6 6 5 3 3 2 0 -0 -0 -1 -1 -1 -1 -1 -1 -1 -1 -2 -1 -2 -2 -2 -1 -1 -1 -1 -1 -1 -1 -1 -1 -1 -1 -1 -1 0 0
2 3 8 9 9 8 7 6 6 7 7 6 6 6 6 4 3 2 0 -0 0 -0 -1 -1 -1 -1 -1 -1 -1 -1 -1 -2 -2 -2 -2 -1 -1 -1 -1 -1 -1 -1 -1 -1 -1 -1 1 1 1
5 4 9 10 10 8 7 6 7 6 6 6 6 6 5 4 4 2 -0 -0 -0 -0 -1 -1 -0 -0 -1 -1 -1 -1 -2 -2 -2 -2 -2 -1 -1 -1 -2 -2 -2 -2 -1 -0 -0 1 1 1 2
6 7 9 9 9 8 7 7 7 6 6 6 5 6 4 4 3 2 0 -0 -0 -1 -1 -1 -1 -1 1 -0 -1 -1 -1 -2 -2 -2 -2 -2 -2 -2 -2 -2 -1 -1 -0 -0 0 1 2 2 3
4 6 9 8 9 9 7 7 6 6 6 6 5 6 6 4 3 1 0 0 -0 -0 -0 -1 -1 -1 -1 -1 0 0 -1 -1 -1 -1 -1 -1 -2 -2 -1 -1 -1 -0 -0 0 1 1 2 3 4
5 8 9 9 9 8 6 7 6 6 6 6 5 5 4 4 3 2 1 1 1 0 -0 -1 -1 -1 -1 -1 -0 1 -0 -0 -0 -1 0 1 -1 -0 0 0 -1 -0 1 1 2 2 3 4 5
6 8 8 7 7 8 7 7 6 6 6 6 5 4 4 5 3 3 2 2 2 1 1 -0 -0 -1 -1 -1 -1 -1 -1 -1 -1 -1 -1 -1 -0 0 1 1 0 -0 1 2 3 4 6 8 7
7 9 7 7 7 8 7 7 6 6 7 5 5 5 4 5 4 4 3 2 2 1 1 0 -0 -1 -1 -1 -1 -1 -1 -1 -1 -1 -1 -1 1 1 2 1 1 1 3 3 4 7 8 8 8
9 7 7 7 7 8 8 7 8 7 6 4 4 4 4 4 5 4 3 2 2 1 1 0 -0 -0 -1 -1 -1 -1 -1 -1 -1 -1 -0 1 1 2 2 2 2 2 4 5 6 7 8 8 9
9 7 7 7 7 8 7 8 8 7 5 4 4 5 5 5 4 4 4 3 2 2 1 0 -0 -0 -0 -0 -1 -1 -1 -1 -1 -1 1 1 2 3 3 3 3 4 5 6 8 8 9 9 9
8 8 8 8 8 8 9 8 9 7 5 6 6 6 6 5 5 4 4 5 4 2 2 1 0 -0 -0 -0 -0 -0 -1 -1 -1 0 1 2 3 3 4 4 4 5 7 8 8 8 9 9 9
9 10 9 9 9 9 9 10 10 7 7 7 7 6 6 6 6 5 4 4 4 3 3 2 1 1 0 -0 -0 -0 -0 -0 0 1 1 3 3 4 5 5 6 7 8 8 9 9 9 9 10
11 11 12 9 10 10 9 12 8 7 8 8 7 7 6 6 5 5 5 5 4 4 4 3 3 2 1 1 0 0 0 1 1 1 2 3 4 5 5 6 7 8 9 9 9 10 10 9 10
11 13 12 11 10 10 10 11 8 8 9 9 8 8 7 7 6 5 5 5 5 5 5 5 4 3 2 1 1 1 1 1 2 2 3 4 5 5 6 6 7 8 9 10 10 10 10 10 10
13 14 13 13 10 11 12 12 10 9 9 9 9 8 8 7 7 6 6 5 6 5 5 5 5 4 3 2 2 2 2 2 2 2 3 4 5 6 7 7 8 9 9 10 10 11 11 10 10
12 13 14 12 10 12 12 12 11 10 9 9 9 8 8 8 6 6 6 6 6 6 6 6 6 6 5 4 4 3 3 4 3 3 4 4 5 6 7 8 9 10 10 10 10 10 11 12 11
12 13 13 12 11 13 12 13 11 10 10 9 9 9 8 8 7 7 7 7 7 7 7 7 7 7 6 5 5 5 5 5 4 4 5 5 5 6 7 8 9 10 10 11 11 11 12 11 11
12 13 13 13 13 12 14 13 12 10 9 9 9 8 8 8 9 8 8 8 8 8 8 8 7 7 7 6 6 6 7 6 6 6 6 6 6 7 8 8 8 9 10 11 10 11 11 12 12
14 11 13 14 15 16 14 17 12 10 10 10 9 9 9 9 9 9 9 9 10 10 9 9 8 8 8 7 7 7 8 8 8 7 7 7 8 8 8 8 8 9 9 10 10 11 10 10 12
13 13 14 14 15 16 15 17 12 13 12 10 9 10 10 10 10 11 11 11 10 10 10 9 9 9 9 9 8 8 8 8 7 8 8 8 8 8 9 9 9 9 9 9 10 11 11 10 10
13 13 13 15 15 18 14 15 14 12 12 10 9 11 11 11 11 11 11 10 11 10 10 10 10 10 10 9 9 9 9 9 9 9 9 9 9 10 9 9 9 10 10 10 10 11 11 11 11
13 14 16 16 17 17 15 15 14 11 11 11 12 11 11 11 11 12 12 11 11 11 11 11 11 11 11 10 10 9 9 9 9 9 9 9 10 10 10 10 10 10 10 10 10 11 11 11 11
14 13 18 22 20 17 13 16 12 10 10 11 11 11 12 12 11 12 11 11 11 11 11 11 12 12 12 12 11 10 10 10 9 9 9 9 10 10 10 10 11 11 11 11 11 12 12 12 12
12 15 11 15 15 18 14 12 10 11 11 11 11 11 12 12 12 12 11 11 11 11 11 11 11 11 12 12 12 12 11 11 11 10 10 10 9 10 10 10 11 11 11 12 12 12 13 12 12
12 11 15 15 21 22 16 15 14 12 11 11 11 11 12 12 12 11 11 11 11 11 11 11 11 12 11 11 11 11 11 11 11 11 11 11 10 10 11 11 11 11 11 12 12 13 12 12 12
13 13 13 14 16 20 20 15 11 11 12 12 13 13 13 13 13 12 11 10 10 11 11 11 11 11 12 12 12 12 11 11 12 12 12 11 11 11 11 11 12 12 12 12 13 13 13 13 13
9 11 11 16 17 14 15 15 10 11 12 13 14 14 13 13 13 13 12 11 11 12 12 12 12 12 12 12 12 12 11 11 12 12 12 12 12 11 12 12 12 12 12 12 12 13 13 13 13

GFSSGP_con_lsi_027.txt.gz
Lid_Strength_Index
-1 -0 -0 2 7 7 9 8 6 7 6 5 5 5 6 5 6 8 1 0 -0 -0 -1 -1 -1 -1 -1 -1 -1 -1 -1 -1 -1 -1 -1 -1 -1 -1 -1 -1 -1 -1 -1 -1 -1 -1 -1 -1 -1
0 1 1 3 8 10 9 7 7 6 5 5 5 5 5 6 3 3 2 -0 -0 -1 -1 -1 -0 -1 -1 -1 -1 -1 -1 -1 -1 -1 -1 -1 -1 -1 -1 -1 -1 -1 -1 -1 -1 -1 -1 -1 -1
0 1 4 6 7 10 9 7 6 5 5 5 5 4 4 5 3 2 0 -0 -0 -0 -1 -1 -0 -1 -1 -1 -1 -1 -1 -1 -2 -1 -1 -1 -1 -1 -1 -1 -1 -1 -1 -1 -1 -1 -1 -0 0
1 2 4 8 9 7 7 6 5 5 5 5 5 6 4 2 2 1 0 -0 -0 -0 -1 -1 -1 -1 -1 -1 -1 -1 -1 -1 -2 -2 -2 -2 -1 -1 -1 -1 -1 -1 -1 -1 -1 -1 -1 -0 1
2 4 7 8 8 7 6 6 5 6 5 5 5 6 5 3 2 1 0 -0 0 -0 -1 -1 -1 -1 -1 -1 -1 -1 -1 -1 -1 -2 -2 -2 -2 -1 -1 -1 -1 -1 -1 -1 -1 -1 0 1 1
5 5 8 9 9 7 6 5 5 5 5 5 6 5 5 2 2 1 0 0 -0 -0 -1 -1 0 -0 -1 -1 -1 -1 -1 -1 -2 -2 -2 -2 -2 -1 -1 -1 -1 -1 -1 -1 -1 0 1 1 2
6 6 8 8 8 8 7 5 6 5 5 5 4 6 4 3 2 1 0 -0 -0 -0 -0 -1 -1 -0 1 0 -0 -1 -1 -1 -2 -2 -2 -2 -2 -1 -1 -1 -1 -1 -1 -1 -0 1 1 2 3
4 6 8 8 8 8 6 5 5 5 6 4 4 6 5 2 2 1 0 0 0 -0 -0 -0 -1 -1 -1 -1 1 0 -0 -1 -1 -1 -0 -1 -1 -1 -2 -2 -2 -1 -1 -0 0 1 2 3 4
4 8 9 8 8 8 6 6 5 4 5 4 4 4 3 3 2 1 1 1 1 1 0 -0 -0 -1 -1 -1 -0 1 1 0 0 -0 0 0 -1 -1 -1 -0 -1 -1 -0 0 1 2 2 4 5
6 8 8 6 6 7 6 6 6 6 5 5 4 3 3 3 3 2 2 2 2 1 1 0 -0 -0 -1 -0 -1 -1 -1 -1 -1 -1 -1 -1 -1 -1 0 1 -0 -1 -0 1 2 3 4 6 6
6 8 7 6 6 6 7 7 6 7 7 5 5 4 3 3 3 3 2 2 2 1 1 0 -0 -0 -0 -0 -1 -1 -1 -0 -1 -1 -1 -1 -1 -1 0 0 0 0 2 3 3 5 7 6 6
8 7 7 6 6 7 7 6 7 7 6 4 4 4 4 4 4 4 3 2 2 1 1 0 -0 -0 -0 -1 -0 -1 -0 -1 -0 -1 -1 -1 -1 -0 0 1 0 0 2 2 3 6 6 7 7
7 7 7 6 6 7 7 7 8 7 5 5 5 5 5 4 4 3 3 2 2 2 1 0 -0 0 -0 -0 -0 -0 -0 -0 -1 -1 -1 -1 -1 0 1 1 1 1 2 3 5 6 7 7 8
7 8 8 7 7 7 8 8 7 7 6 6 6 6 5 5 5 4 4 3 3 2 1 0 0 -0 -0 0 -0 -0 -0 -1 -1 -1 -1 -1 -0 1 1 1 2 2 3 4 6 7 7 7 7
8 10 9 8 8 8 8 10 9 7 6 7 7 6 6 5 5 5 4 4 4 3 2 1 0 -0 0 0 -0 -0 -0 -0 -0 -1 -1 -1 0 1 2 2 2 3 4 5 6 7 7 8 8
10 9 12 8 9 9 9 12 8 6 7 7 7 7 6 6 6 5 5 5 4 4 4 3 2 1 0 0 -0 -0 -0 -0 -0 -1 -1 -0 1 2 3 3 3 4 6 7 7 8 8 8 9
10 13 11 10 8 9 10 11 8 7 7 8 7 7 6 6 6 5 5 5 5 5 4 4 3 2 1 0 -0 -0 -0 -0 -0 -1 -1 0 1 2 3 4 4 5 7 7 8 8 8 9 9
12 11 11 11 9 9 11 11 9 8 8 8 7 7 7 6 6 6 6 6 5 5 5 5 4 4 3 2 1 0 0 -0 -0 -0 0 1 2 3 4 4 5 6 7 8 8 8 8 8 9
10 11 12 10 9 10 10 11 10 9 9 9 8 8 7 7 6 7 7 6 6 6 6 6 6 5 4 3 3 2 2 1 1 1 1 1 2 3 4 5 5 7 8 8 8 9 10 9 9
11 12 12 10 9 10 11 12 10 10 9 8 8 8 8 8 7 8 8 8 8 8 7 7 6 6 6 5 4 3 3 2 2 2 2 2 2 3 5 5 6 7 8 8 9 9 10 10 10
11 12 12 12 11 10 12 13 11 9 8 8 8 8 9 9 9 9 10 10 9 9 9 8 8 7 6 6 5 5 4 5 5 4 3 3 3 4 5 6 7 7 8 9 9 9 10 11 11
14 10 11 13 14 15 12 17 12 10 9 10 9 10 10 10 10 10 10 10 10 10 9 9 8 8 8 7 6 6 6 7 6 6 5 5 5 5 5 6 7 8 8 9 9 9 9 9 11
13 12 13 13 14 14 13 15 12 10 11 11 11 10 10 10 10 11 10 10 10 9 9 9 9 9 8 8 7 7 8 7 7 6 6 6 6 6 6 7 7 8 8 9 9 10 10 9 10
11 12 12 12 13 16 13 13 13 11 11 12 11 11 10 10 10 10 10 10 10 10 10 10 10 10 10 9 9 9 9 9 8 7 8 7 7 7 7 7 8 8 9 9 9 9 10 10 10
12 13 15 17 16 17 13 13 12 10 10 10 11 11 10 10 10 10 11 11 11 11 10 11 11 11 11 10 10 10 10 9 9 8 8 8 8 8 8 8 9 9 9 9 10 10 10 10 10
12 11 16 22 20 17 12 16 12 8 10 10 10 10 10 10 10 11 11 11 11 11 11 11 11 12 11 11 11 10 10 10 10 9 9 9 8 8 8 9 9 9 9 10 10 10 11 11 11
11 14 10 16 16 19 14 12 9 7 10 10 10 11 11 11 11 11 10 10 11 11 11 11 11 12 12 12 12 11 11 11 11 10 10 9 9 9 9 9 9 10 10 10 10 11 11 11 11
11 10 14 14 20 20 15 14 13 11 10 10 11 12 12 11 12 11 10 10 11 11 11 11 11 12 12 12 12 12 12 11 11 11 11 11 10 10 10 10 10 10 10 11 11 11 11 12 12
11 12 11 13 15 19 20 16 8 9 9 10 12 12 12 13 12 12 11 10 10 12 12 12 11 12 12 12 12 11 11 12 11 12 12 11 11 11 11 11 10 11 11 11 11 11 12 12 12
9 11 11 16 17 16 16 16 9 9 10 10 12 12 12 12 12 13 12 12 10 12 13 12 12 12 12 12 11 11 11 12 12 13 12 12 12 12 12 12 12 12 12 11 12 12 12 12 13

GFSSGP_con_lsi_030.txt.gz
Lid_Strength_Index
-1 -0 1 3 9 9 11 10 8 8 8 7 6 8 8 7 8 10 3 1 1 1 -0 -1 -1 -1 -1 -1 -1 -2 -2 -2 -1 -1 -1 -1 -1 -1 -1 -1 -1 -1 -1 -1 -1 -1 -1 -1 -1
1 1 2 5 11 13 12 9 8 7 7 7 7 7 8 8 5 4 3 1 1 0 -0 -0 -0 -1 -1 -1 -2 -1 -2 -2 -2 -1 -1 -1 -1 -1 -1 -1 -1 -1 -1 -1 -1 -1 -1 -1 -1
1 2 5 8 10 12 11 9 8 7 6 8 8 7 8 7 5 4 2 1 1 1 -0 -0 -0 -1 -1 -1 -1 -1 -1 -2 -2 -2 -1 -1 -1 -1 -1 -1 -1 -1 -1 -1 -1 -1 -1 -1 0
2 4 6 10 11 10 10 9 7 7 7 7 7 8 6 4 4 2 1 1 1 1 0 -0 -1 -1 -1 -1 -1 -1 -1 -1 -2 -2 -2 -2 -2 -1 -1 -1 -1 -1 -1 -1 -1 -1 -1 -0 1
3 5 9 10 10 10 9 7 8 8 8 8 8 9 7 5 2 2 2 1 1 1 1 -0 -0 -1 -1 -1 -1 -1 -1 -1 -1 -1 -2 -2 -2 -1 -1 -1 -1 -1 -1 -1 -1 -1 -0 1 1
6 7 11 11 10 9 9 7 7 8 8 8 9 8 8 4 4 3 2 2 1 1 0 -0 1 0 -0 -1 -1 -1 -1 -1 -1 -1 -2 -3 -2 -2 -1 -1 -1 -1 -1 -2 -2 -0 0 1 2
7 8 10 10 10 9 8 7 9 8 8 8 7 9 8 6 4 3 2 2 1 1 0 1 -0 0 1 0 0 -0 -1 -1 -1 -1 -2 -2 -2 -2 -1 -2 -1 -1 -2 -1 -1 0 1 1 2
6 8 11 11 10 10 8 8 8 8 8 7 7 9 8 6 4 4 2 2 2 2 1 1 0 0 0 0 1 1 0 0 -1 -1 -0 -0 -1 -1 -1 -1 -2 -2 -1 -1 -0 0 1 2 3
5 10 11 10 10 10 8 9 8 7 8 7 6 7 6 4 3 4 3 3 2 2 1 1 1 0 0 0 1 2 1 1 1 1 1 2 1 0 1 -0 -2 -1 -1 -0 0 1 2 3 5
8 10 10 8 9 9 8 9 9 9 8 8 8 6 5 5 5 5 4 4 3 3 2 1 1 1 1 0 1 0 1 1 1 1 1 1 2 1 0 1 -1 -1 -1 -0 1 1 3 4 9
7 10 8 8 7 8 9 9 8 9 10 8 9 8 7 8 6 6 5 4 3 3 2 2 1 1 1 1 1 1 1 1 0 -0 0 0 0 2 2 3 2 3 2 4 4 5 7 9 9
9 7 7 7 7 8 9 8 9 9 9 7 7 7 7 8 7 7 6 5 5 3 2 2 1 2 2 1 2 1 1 1 0 2 1 0 2 3 3 3 3 4 4 5 6 8 9 9 9
9 8 7 7 8 8 8 9 9 9 8 7 7 7 8 8 8 7 7 6 5 5 4 2 1 2 2 2 2 2 2 1 0 1 0 0 2 3 3 3 3 3 5 5 7 9 9 10 10
9 9 9 9 9 9 9 10 10 9 8 8 8 8 8 8 8 8 7 7 6 5 4 3 2 1 1 2 2 1 2 2 1 1 0 1 3 4 3 4 4 4 5 6 8 9 10 10 10
9 11 10 10 9 10 9 11 11 9 8 9 8 9 8 8 8 8 7 7 7 6 5 4 3 2 2 2 2 2 2 2 2 1 2 2 4 4 4 4 5 5 6 7 9 10 10 10 10
11 12 14 10 10 10 11 14 10 9 10 10 9 9 9 8 8 8 8 8 8 7 6 5 4 3 2 2 2 2 2 2 2 2 2 2 3 4 4 5 5 5 7 9 10 11 11 11 11
13 16 14 12 9 11 12 14 10 9 9 10 9 9 9 8 8 8 8 7 7 7 8 6 5 4 3 2 2 2 2 2 2 2 3 3 3 3 5 6 6 7 9 10 10 11 11 12 12
15 14 13 13 11 11 13 13 11 10 10 10 9 10 10 10 10 9 9 8 8 8 8 8 7 5 4 4 3 3 3 3 3 3 3 3 3 4 5 6 6 8 10 10 11 11 11 11 12
13 14 15 13 10 12 12 12 12 10 10 10 10 10 11 11 10 10 10 10 9 9 9 9 9 8 7 6 6 5 5 4 4 3 3 4 4 4 6 7 8 9 9 10 11 11 12 12 12
13 15 15 13 11 12 13 13 11 10 10 10 11 11 11 11 11 11 11 11 11 10 10 10 9 9 8 8 6 6 6 5 4 4 4 4 5 5 6 7 8 9 11 11 11 11 12 12 12
14 14 14 15 13 13 14 16 13 11 11 11 11 11 11 12 12 12 11 11 11 11 11 11 10 10 9 8 8 8 7 8 8 7 6 5 5 6 7 8 9 10 11 11 11 11 12 13 13
15 12 13 14 16 19 15 20 15 12 12 12 12 12 12 12 12 12 12 12 12 12 11 11 11 11 10 9 9 9 9 10 10 9 7 7 6 7 7 8 9 10 11 11 12 11 12 13 13
13 12 13 14 16 17 16 18 16 12 14 14 13 12 12 12 12 12 12 12 12 12 12 12 12 11 11 11 10 10 11 10 10 10 10 9 9 8 8 8 9 10 11 12 12 13 13 12 13
12 14 14 14 16 20 15 16 16 14 14 13 12 12 11 11 11 11 11 11 12 13 13 13 13 12 12 12 12 12 12 12 12 11 11 11 10 10 9 9 10 10 11 12 13 13 13 14 13
13 15 18 19 20 19 14 16 14 11 12 12 12 12 12 12 12 12 12 12 12 13 13 13 13 14 13 13 12 12 13 13 13 13 12 12 11 11 11 11 11 11 11 12 12 13 14 13 13
13 13 18 24 22 20 14 18 14 11 11 11 11 12 12 12 12 12 12 12 13 12 13 13 13 14 14 14 14 13 13 13 13 13 12 12 12 12 11 11 11 11 11 11 12 13 14 14 13
13 15 12 17 17 19 16 13 10 11 10 11 11 12 13 13 12 12 12 12 13 13 13 14 14 14 15 13 13 14 14 14 14 13 13 13 13 12 12 12 12 12 11 12 12 14 14 14 14
11 10 16 15 22 24 17 16 14 11 11 11 12 13 13 13 13 13 12 13 14 14 14 14 14 15 14 14 14 14 14 14 14 14 15 14 13 13 13 13 13 13 12 12 13 14 14 14 14
13 13 12 13 16 20 20 16 10 11 10 12 13 13 13 13 13 13 13 11 12 13 14 14 13 14 14 14 14 14 15 15 15 15 14 15 14 14 14 13 13 13 13 13 13 14 14 14 14
10 11 12 16 17 16 16 16 9 11 11 11 12 12 12 12 13 13 12 12 11 13 14 13 14 14 14 14 14 15 15 15 16 15 14 15 15 15 14 14 14 13 13 14 14 14 14 15 15

GFSSGP_con_lsi_033.txt.gz
Lid_Strength_Index
0 2 3 5 10 11 13 12 11 9 10 9 8 9 9 9 9 11 4 3 0 0 -0 -0 -1 -1 -1 -2 -2 -1 -2 -1 -1 -1 -1 -1 -1 -1 -1 -1 -2 -1 -2 -1 -1 -1 -1 -1 -1
3 2 5 8 12 15 14 11 10 9 8 8 8 8 9 9 6 4 4 1 0 -0 -0 -0 -0 -1 -1 -1 -1 -1 -2 -2 -1 -1 -1 -1 -1 -1 -1 -1 -1 -1 -1 -1 -1 -2 -1 -1 -1
3 3 8 10 13 14 14 12 11 9 8 9 9 8 8 8 6 4 3 1 1 0 -0 -0 -0 -1 -1 -1 -1 -1 -2 -2 -2 -2 -1 -1 -2 -2 -1 -1 -1 -2 -1 -1 -1 -1 -1 -0 0
5 6 8 12 14 12 12 12 10 9 9 8 9 10 7 6 5 3 2 1 3 1 -0 -0 -1 -1 -1 -1 -1 -2 -1 -2 -2 -2 -2 -1 -2 -1 -2 -2 -2 -2 -1 -1 -1 -1 -1 0 1
6 8 12 13 13 11 11 9 9 9 9 9 9 10 9 5 3 2 2 1 3 3 1 -0 -0 -1 -1 -1 -1 -1 -1 -1 -1 -2 -2 -2 -2 -2 -1 -1 -1 -1 -1 -1 -1 -1 -0 1 2
9 10 14 14 13 11 10 9 9 9 9 9 10 10 9 6 5 4 2 2 2 2 1 -0 1 0 -0 -1 -1 -1 -1 -1 -1 -1 -2 -2 -2 -2 -1 -1 -1 -1 -1 -2 -1 -0 0 1 2
9 11 14 13 12 11 10 9 10 11 10 10 9 11 9 7 5 3 3 3 2 1 0 0 -0 0 1 0 0 -0 -1 -1 -1 -1 -1 -2 -2 -2 -2 -2 -1 -1 -2 -2 -1 -0 0 1 2
9 11 12 13 13 12 10 10 9 10 9 8 9 11 9 7 4 3 4 3 3 2 1 0 1 0 0 0 2 1 0 -0 -0 -0 -0 -0 -0 -1 -1 -1 -1 -2 -2 -2 -1 -0 1 2 3
8 13 14 13 12 11 9 11 9 9 10 9 8 9 8 7 5 5 4 4 4 3 2 1 1 0 1 1 1 2 1 1 1 1 2 2 2 1 0 -0 -1 -2 -2 -1 -0 0 1 3 5
10 13 12 10 12 11 10 11 11 11 10 10 9 8 8 6 7 6 5 5 4 4 3 2 2 1 0 0 1 2 1 1 2 2 3 2 3 3 2 2 -1 -2 -2 -1 -0 1 2 5 10
9 12 10 9 8 9 10 10 10 11 12 10 10 9 9 8 7 7 7 5 4 3 3 2 2 2 1 0 1 1 1 2 3 2 2 2 2 3 4 3 2 2 2 3 3 4 7 8 9
11 9 8 8 8 9 10 9 10 10 9 8 9 8 9 9 9 8 8 7 7 4 2 1 2 2 2 1 2 1 1 2 2 1 1 1 1 3 5 4 3 4 5 5 6 7 9 10 10
11 10 9 9 9 9 9 10 10 10 8 8 8 8 9 9 9 9 8 8 8 7 5 2 2 2 1 2 3 2 2 2 2 3 1 1 1 3 5 4 3 5 5 6 7 9 10 10 10
10 10 11 10 10 10 11 11 10 10 9 9 9 9 10 9 9 9 9 8 8 7 7 4 1 2 2 2 3 3 2 2 3 3 2 1 2 3 5 5 4 4 5 6 8 10 10 11 11
10 12 12 11 11 11 11 13 12 10 10 10 10 10 10 10 10 10 9 9 9 8 7 6 2 2 2 3 3 3 3 3 2 2 2 2 3 3 5 5 4 4 5 7 9 10 10 11 11
12 14 15 12 11 11 12 15 11 10 11 11 10 10 10 11 11 11 10 10 9 9 8 7 3 2 3 3 3 3 3 3 3 3 2 3 3 3 4 6 5 5 6 8 10 11 11 11 12
15 17 15 14 11 12 13 15 11 10 11 11 11 11 11 12 11 11 11 10 10 10 9 9 7 4 3 3 3 3 3 3 3 3 4 3 4 4 6 7 6 6 7 9 10 12 11 12 12
16 16 15 15 12 13 14 15 13 12 12 11 12 12 12 12 12 11 11 11 11 11 10 9 8 7 5 4 4 4 4 4 4 4 3 4 4 6 7 7 6 7 9 10 11 12 12 12 13
15 16 16 15 12 14 14 15 13 12 12 12 13 13 13 12 11 11 11 12 12 12 11 11 10 9 8 7 6 6 5 5 5 3 3 3 3 4 7 7 7 9 9 11 11 12 12 13 13
15 16 16 14 13 14 15 15 13 11 13 13 13 13 13 13 13 12 12 12 12 12 12 12 11 10 10 9 8 7 7 7 5 5 4 4 4 4 6 8 9 10 11 11 12 12 13 13 13
15 16 16 15 14 14 16 17 15 14 13 12 12 12 12 13 13 13 13 13 13 13 13 12 12 11 11 10 9 9 9 9 9 8 7 6 5 5 6 7 9 10 11 11 12 12 12 14 13
16 13 14 14 17 19 16 21 16 14 14 13 13 14 14 13 13 12 13 13 13 13 13 13 12 12 12 12 12 12 11 12 11 10 9 8 7 7 7 7 9 10 12 12 12 12 13 13 14
14 14 15 15 17 18 17 20 17 14 15 14 14 13 13 13 13 13 13 12 13 13 13 13 13 12 12 12 13 13 13 12 12 11 11 11 10 9 8 9 9 10 11 12 13 13 14 14 13
13 15 15 16 17 21 17 17 17 16 14 14 13 13 13 13 12 12 12 12 13 13 14 13 14 13 13 13 13 13 13 13 13 13 13 12 12 11 10 10 10 10 11 12 13 13 14 13 14
14 16 19 20 21 20 15 16 15 12 13 12 13 13 13 12 13 13 13 13 13 14 14 14 14 14 14 14 14 14 13 13 14 14 14 14 13 13 13 13 12 11 11 12 13 14 14 14 13
15 14 18 23 22 19 15 17 14 12 11 11 12 12 12 13 13 13 13 13 13 14 14 14 15 15 14 14 14 14 14 13 13 14 14 14 14 14 13 14 14 13 12 11 12 14 14 14 14
13 15 12 16 16 20 17 14 12 11 12 12 12 12 13 13 12 12 13 14 14 14 14 14 15 15 14 14 14 14 15 15 15 15 15 15 14 13 14 14 14 14 14 13 13 14 15 15 15
11 10 16 16 22 22 17 16 16 13 12 12 13 13 13 13 13 12 12 13 14 14 14 14 14 15 15 14 15 15 15 14 15 15 16 16 15 15 15 15 15 15 14 14 14 15 15 15 15
13 14 13 14 16 20 21 17 11 11 11 12 13 12 12 13 13 13 13 13 14 14 15 15 15 14 14 14 15 14 14 15 15 15 15 16 15 15 16 15 15 16 16 15 14 15 15 16 15
10 12 12 16 18 16 17 16 10 10 11 11 11 11 12 12 14 14 13 12 13 14 14 13 13 13 12 12 13 13 13 14 14 15 15 15 15 15 16 16 16 16 16 16 15 15 15 15 16

GFSSGP_con_lsi_036.txt.gz
Lid_Strength_Index
2 4 4 6 10 12 14 12 11 10 10 9 8 9 10 9 10 11 4 3 0 0 -0 -0 -1 -1 -1 -2 -2 -1 -1 -1 -1 -1 -1 -1 -1 -1 -1 -1 -2 -2 -2 -1 -1 -1 -1 -1 -1
3 3 5 9 13 15 14 12 11 10 9 9 9 9 10 10 6 5 4 3 0 -0 -0 -0 -0 -1 -1 -2 -1 -1 -1 -2 -1 -1 -1 -1 -1 -1 -1 -1 -3 -2 -1 -1 -1 -1 -1 -1 -1
4 4 8 11 14 15 14 12 11 10 9 9 10 9 8 8 6 4 4 1 0 0 -0 -0 -0 -1 -1 -1 -1 -1 -1 -2 -2 -1 -1 -2 -1 -1 -1 -1 -2 -2 -1 -1 -1 -1 -1 0 1
5 7 9 13 14 12 13 12 11 10 9 9 9 9 8 6 6 4 2 1 0 0 -0 -0 -0 -1 -1 -1 -1 -1 -2 -2 -2 -1 -1 -1 -1 -2 -1 -2 -2 -2 -1 -1 -1 -1 -1 0 0
7 10 13 14 14 12 11 10 10 10 10 10 9 10 10 5 4 3 2 2 1 1 0 -0 -0 -1 -1 -1 -1 -1 -1 -2 -2 -2 -2 -2 -1 -2 -2 -2 -2 -1 -1 -1 -1 -1 0 1 2
9 11 14 15 14 12 11 10 10 11 11 10 10 10 10 6 4 3 3 3 3 1 1 -0 1 1 -0 -1 -1 -1 -1 -1 -1 -1 -2 -2 -2 -2 -1 -1 -1 -1 -1 -1 -1 -0 1 2 2
10 12 14 14 14 12 11 10 11 11 12 11 10 12 9 8 5 4 3 2 3 2 1 0 -0 1 1 0 0 -1 -1 -1 -1 -1 -1 -1 -2 -2 -2 -2 -1 -1 -1 -1 -1 -0 1 2 3
9 11 13 14 14 13 10 10 10 11 11 9 9 12 11 7 6 4 4 3 3 2 1 1 1 0 0 0 2 1 0 -0 -0 -0 0 1 -0 -1 -1 -1 -2 -2 -1 -2 -1 -0 1 2 3
9 13 15 14 13 12 10 11 10 10 11 11 9 10 9 7 6 5 5 5 4 3 2 1 1 1 1 0 1 2 1 1 1 1 2 2 2 1 2 1 -1 -1 -2 -2 -1 0 1 3 5
11 14 13 12 12 12 10 11 11 11 11 11 11 9 9 7 7 7 6 6 5 4 3 2 1 1 1 0 1 1 -0 0 1 2 2 3 3 3 2 3 0 -1 -2 -2 -1 0 2 6 11
10 13 11 10 10 10 10 10 10 11 12 11 10 10 9 8 8 7 7 6 6 5 3 2 1 1 1 1 1 2 2 2 2 3 4 3 3 3 4 4 3 2 1 2 1 3 6 9 10
12 9 9 8 9 10 11 10 10 10 9 9 9 9 10 9 10 9 9 8 7 6 4 2 2 1 1 1 1 1 1 2 2 2 3 3 2 3 3 5 5 3 4 4 5 6 8 10 10
12 11 9 9 9 10 10 11 11 10 9 9 9 10 10 11 11 11 11 10 9 8 7 4 2 2 1 2 2 1 1 1 2 3 3 2 2 4 4 5 6 4 5 6 7 7 9 11 11
11 11 10 10 10 11 11 12 11 10 11 10 10 11 12 11 11 11 11 10 10 9 9 7 2 1 2 2 3 2 1 1 2 3 3 3 2 2 4 5 5 5 5 6 7 8 11 11 11
11 12 12 12 12 12 12 13 13 10 11 11 11 12 11 11 11 12 11 11 11 10 9 9 4 1 2 2 3 3 3 3 3 3 4 4 3 3 4 5 5 6 5 6 8 9 11 12 12
13 14 16 12 12 12 12 15 11 11 12 12 12 13 12 12 12 12 11 11 11 11 11 9 6 3 3 3 3 3 4 4 4 4 4 4 4 4 4 5 4 5 6 7 9 10 11 12 12
15 18 16 14 12 12 14 15 12 11 12 13 13 13 13 13 12 12 12 12 12 11 11 10 9 6 4 4 4 4 4 5 4 4 4 3 3 4 4 5 4 5 7 9 9 11 11 12 13
17 17 16 16 13 14 15 15 13 12 12 13 15 15 14 14 13 12 12 12 12 12 12 11 10 10 7 5 5 5 5 5 5 3 2 2 3 4 4 5 5 6 7 10 10 11 12 12 13
16 17 17 15 13 15 15 15 13 13 13 14 15 14 14 14 13 13 13 13 13 13 13 12 12 11 9 9 7 6 6 5 5 3 2 3 3 5 6 6 6 7 7 8 10 12 12 13 13
15 17 17 15 14 15 15 15 15 14 14 14 14 14 14 14 14 13 13 14 14 14 13 13 12 12 11 10 10 9 9 9 7 6 5 4 3 4 5 6 7 8 10 11 12 12 13 13 13
15 16 16 15 15 15 17 17 16 14 14 13 13 13 13 14 14 14 13 14 14 14 14 13 13 13 13 12 11 11 10 11 11 10 9 7 6 6 6 7 8 8 9 10 11 12 13 13 14
16 14 14 15 17 19 17 21 17 15 15 15 14 15 15 14 14 13 14 14 14 14 14 14 13 13 13 12 12 13 13 14 13 12 12 11 10 10 9 7 8 9 10 10 11 11 12 13 14
15 14 15 16 17 19 18 20 18 15 16 16 15 14 14 13 13 14 14 13 13 14 15 14 13 13 13 13 13 13 14 14 14 13 13 13 12 12 12 11 10 9 9 11 11 12 13 13 13
14 15 15 17 18 21 18 18 18 16 15 15 14 13 13 13 13 13 13 13 14 14 14 14 14 13 13 14 14 14 14 14 14 15 15 14 13 13 13 13 13 12 12 12 11 12 12 12 12
15 16 19 21 22 21 16 18 16 14 13 13 14 14 13 13 14 14 13 14 14 15 15 14 14 14 14 14 14 14 14 15 15 15 16 16 15 15 14 14 14 14 13 13 13 13 13 14 14
16 16 20 25 22 20 16 18 15 13 13 13 13 14 13 13 13 13 14 14 14 14 15 16 15 15 14 15 15 15 15 15 16 16 16 15 15 15 14 15 15 15 14 14 14 14 15 15 15
14 16 13 16 17 18 17 16 13 13 13 13 13 13 13 13 12 13 13 14 13 13 14 14 15 15 15 15 15 14 14 16 17 16 16 16 15 15 15 15 15 15 15 15 15 15 15 15 15
12 11 16 16 24 22 19 18 17 14 14 13 14 13 13 13 12 12 12 13 13 13 13 14 14 14 15 15 14 14 14 14 15 15 16 16 15 15 15 15 15 15 15 15 16 16 16 16 15
14 14 14 14 15 21 23 18 13 12 12 12 13 12 13 12 12 11 12 13 13 13 13 13 13 14 14 14 15 14 14 15 15 15 15 15 15 15 15 14 15 15 15 15 15 16 16 16 16
12 13 13 17 18 16 17 17 11 10 11 11 12 11 12 12 13 13 12 13 14 14 14 14 13 14 14 15 15 15 14 14 15 14 14 14 14 13 15 14 14 15 15 15 15 16 16 16 16